• In Belarus
  • List of Countries
  • For 7 days
  • Water Temperature
  • Satellite Maps
  • Weather Map
  • Weather Widgets
  • user-avatar
    Login

    Hourly Weather Innsbruck

    Today, 23 February, Friday

    Time Temperature Precipitation Wind Pressure Humidity
    00:00 -14°C° 0 mm 1 mps 584 mmHg 91%
    01:00 -14°C° 0 mm 1 mps 584 mmHg 90%
    02:00 -14°C° 0 mm 1 mps 584 mmHg 89%
    03:00 -14°C° 0 mm 1 mps 584 mmHg 88%
    04:00 -14°C° 0 mm 1 mps 584 mmHg 86%
    05:00 -14°C° 0 mm 1 mps 584 mmHg 85%
    06:00 -14°C° 0 mm 1 mps 584 mmHg 84%
    07:00 -13°C° 0 mm 1 mps 584 mmHg 85%
    08:00 -11°C° 0 mm 1 mps 585 mmHg 83%
    09:00 -9°C° 0 mm 1 mps 586 mmHg 82%
    10:00 -8°C° 0 mm 1 mps 587 mmHg 81%
    11:00 -7°C° 0 mm 1 mps 587 mmHg 83%
    12:00 -6°C° 0 mm 1 mps 587 mmHg 85%
    13:00 -6°C° 0 mm 2 mps 588 mmHg 88%
    14:00 -4°C° 0 mm 1 mps 588 mmHg 88%
    15:00 -4°C° 0 mm 1 mps 587 mmHg 88%
    16:00 -4°C° 0 mm 1 mps 587 mmHg 88%
    17:00 -6°C° 0 mm 1 mps 587 mmHg 90%
    18:00 -7°C° 0 mm 1 mps 587 mmHg 91%
    19:00 -9°C° 0 mm 1 mps 586 mmHg 93%
    20:00 -9°C° 0 mm 1 mps 586 mmHg 92%
    21:00 -9°C° 0 mm 1 mps 587 mmHg 90%
    22:00 -9°C° 0 mm 1 mps 587 mmHg 89%
    23:00 -9°C° 0 mm 1 mps 587 mmHg 88%

    Tomorrow, 24 February, Saturday

    Time Temperature Precipitation Wind Pressure Humidity
    00:00 -9°C° 0 mm 1 mps 587 mmHg 86%
    01:00 -9°C° 0 mm 1 mps 587 mmHg 85%
    02:00 -9°C° 0 mm 1 mps 587 mmHg 85%
    03:00 -9°C° 0 mm 1 mps 587 mmHg 85%
    04:00 -9°C° 0 mm 1 mps 587 mmHg 85%
    05:00 -9°C° 0 mm 1 mps 587 mmHg 85%
    06:00 -9°C° 0 mm 1 mps 587 mmHg 85%
    07:00 -10°C° 0 mm 1 mps 587 mmHg 86%
    08:00 -8°C° 0 mm 1 mps 587 mmHg 86%
    09:00 -6°C° 0 mm 1 mps 588 mmHg 86%
    10:00 -3°C° 0 mm 1 mps 589 mmHg 86%
    11:00 -3°C° 0 mm 1 mps 589 mmHg 88%
    12:00 -2°C° 0 mm 1 mps 589 mmHg 91%
    13:00 -2°C° 0 mm 1 mps 589 mmHg 93%
    14:00 -2°C° 0.1 mm 1 mps 589 mmHg 93%
    15:00 -4°C° 0.1 mm 2 mps 589 mmHg 93%
    16:00 -5°C° 0.1 mm 2 mps 589 mmHg 93%
    17:00 -6°C° 0.1 mm 2 mps 589 mmHg 94%
    18:00 -7°C° 0.1 mm 2 mps 588 mmHg 95%
    19:00 -8°C° 0.1 mm 2 mps 588 mmHg 95%
    20:00 -8°C° 0.1 mm 1 mps 588 mmHg 95%
    21:00 -8°C° 0.1 mm 1 mps 588 mmHg 95%
    22:00 -9°C° 0.1 mm 1 mps 588 mmHg 95%
    23:00 -9°C° 0.1 mm 1 mps 588 mmHg 95%

    Day after tomorrow, 25 February, Sunday

    Time Temperature Precipitation Wind Pressure Humidity
    00:00 -10°C° 0.1 mm 1 mps 588 mmHg 95%
    01:00 -10°C° 0.1 mm 1 mps 588 mmHg 95%
    02:00 -10°C° 0.1 mm 1 mps 587 mmHg 95%
    03:00 -11°C° 0.1 mm 1 mps 587 mmHg 95%
    04:00 -11°C° 0.1 mm 1 mps 587 mmHg 95%
    05:00 -12°C° 0.2 mm 1 mps 587 mmHg 95%
    06:00 -12°C° 0.2 mm 1 mps 587 mmHg 94%
    07:00 -12°C° 0.2 mm 1 mps 586 mmHg 94%
    08:00 -14°C° 0.2 mm 2 mps 587 mmHg 93%
    09:00 -14°C° 0.2 mm 2 mps 587 mmHg 92%
    10:00 -13°C° 0.2 mm 2 mps 587 mmHg 91%
    11:00 -13°C° 0.2 mm 2 mps 587 mmHg 90%
    12:00 -13°C° 0.2 mm 2 mps 587 mmHg 89%
    13:00 -12°C° 0.2 mm 2 mps 587 mmHg 89%
    14:00 -14°C° 0.2 mm 3 mps 587 mmHg 89%
    15:00 -14°C° 0.2 mm 3 mps 586 mmHg 89%
    16:00 -15°C° 0.2 mm 3 mps 586 mmHg 90%
    17:00 -16°C° 0.2 mm 3 mps 586 mmHg 91%
    18:00 -16°C° 0.2 mm 2 mps 585 mmHg 93%
    19:00 -18°C° 0.2 mm 2 mps 585 mmHg 94%
    20:00 -18°C° 0.2 mm 2 mps 585 mmHg 94%
    21:00 -19°C° 0.2 mm 2 mps 585 mmHg 94%
    22:00 -18°C° 0.2 mm 1 mps 584 mmHg 94%
    23:00 -18°C° 0.2 mm 1 mps 584 mmHg 94%

    26 February, Monday

    Time Temperature Precipitation Wind Pressure Humidity
    00:00 -18°C° 0.2 mm 1 mps 584 mmHg 94%
    01:00 -19°C° 0.2 mm 1 mps 584 mmHg 94%
    02:00 -19°C° 0.1 mm 1 mps 583 mmHg 94%
    03:00 -19°C° 0.1 mm 1 mps 583 mmHg 94%
    04:00 -19°C° 0.1 mm 1 mps 583 mmHg 94%
    05:00 -20°C° 0.1 mm 1 mps 583 mmHg 93%
    06:00 -20°C° 0.1 mm 1 mps 582 mmHg 93%
    07:00 -23°C° 0.1 mm 2 mps 582 mmHg 93%
    08:00 -21°C° 0.1 mm 2 mps 583 mmHg 91%
    09:00 -20°C° 0.1 mm 2 mps 583 mmHg 90%
    10:00 -19°C° 0.1 mm 2 mps 583 mmHg 88%
    11:00 -19°C° 0.1 mm 2 mps 583 mmHg 87%
    12:00 -18°C° 0.1 mm 2 mps 583 mmHg 86%
    13:00 -18°C° 0.1 mm 3 mps 583 mmHg 85%
    14:00 -18°C° 0.1 mm 3 mps 583 mmHg 85%
    15:00 -19°C° 0.1 mm 3 mps 583 mmHg 86%
    16:00 -19°C° 0.1 mm 3 mps 583 mmHg 87%
    17:00 -19°C° 0.2 mm 2 mps 583 mmHg 89%
    18:00 -20°C° 0.2 mm 2 mps 582 mmHg 92%
    19:00 -21°C° 0.2 mm 2 mps 582 mmHg 94%
    20:00 -21°C° 0.1 mm 2 mps 582 mmHg 94%
    21:00 -20°C° 0.1 mm 1 mps 582 mmHg 94%
    22:00 -20°C° 0.1 mm 1 mps 582 mmHg 94%
    23:00 -21°C° 0.1 mm 1 mps 582 mmHg 93%

    27 February, Tuesday

    Time Temperature Precipitation Wind Pressure Humidity
    00:00 -21°C° 0.1 mm 1 mps 581 mmHg 93%
    01:00 -21°C° 0.1 mm 1 mps 581 mmHg 93%
    02:00 -22°C° 0.1 mm 1 mps 581 mmHg 93%
    03:00 -22°C° 0.1 mm 1 mps 580 mmHg 92%
    04:00 -23°C° 0.1 mm 1 mps 580 mmHg 92%
    05:00 -23°C° 0 mm 1 mps 580 mmHg 92%
    06:00 -24°C° 0 mm 1 mps 579 mmHg 92%
    07:00 -24°C° 0 mm 1 mps 579 mmHg 92%
    08:00 -22°C° 0 mm 1 mps 580 mmHg 89%
    09:00 -20°C° 0 mm 1 mps 581 mmHg 85%
    10:00 -18°C° 0 mm 1 mps 582 mmHg 82%
    11:00 -19°C° 0 mm 2 mps 582 mmHg 81%
    12:00 -18°C° 0 mm 2 mps 582 mmHg 80%
    13:00 -17°C° 0 mm 2 mps 583 mmHg 79%
    14:00 -17°C° 0.1 mm 2 mps 582 mmHg 81%
    15:00 -17°C° 0.1 mm 2 mps 582 mmHg 82%
    16:00 -18°C° 0.1 mm 2 mps 582 mmHg 84%
    17:00 -19°C° 0.1 mm 2 mps 582 mmHg 87%
    18:00 -19°C° 0.1 mm 1 mps 581 mmHg 91%
    19:00 -21°C° 0.1 mm 1 mps 581 mmHg 94%
    20:00 -21°C° 0 mm 1 mps 581 mmHg 94%
    21:00 -22°C° 0 mm 1 mps 580 mmHg 93%
    22:00 -23°C° 0 mm 1 mps 580 mmHg 93%
    23:00 -23°C° 0 mm 1 mps 580 mmHg 91%

    28 February, Wednesday

    Time Temperature Precipitation Wind Pressure Humidity
    00:00 -23°C° 0 mm 1 mps 580 mmHg 90%
    01:00 -23°C° 0 mm 1 mps 580 mmHg 89%
    02:00 -23°C° 0 mm 1 mps 580 mmHg 88%
    03:00 -23°C° 0 mm 1 mps 580 mmHg 87%
    04:00 -24°C° 0 mm 1 mps 580 mmHg 87%
    05:00 -24°C° 0 mm 1 mps 580 mmHg 86%
    06:00 -24°C° 0 mm 1 mps 580 mmHg 86%
    07:00 -24°C° 0 mm 1 mps 581 mmHg 86%
    08:00 -21°C° 0 mm 1 mps 582 mmHg 81%
    09:00 -18°C° 0 mm 1 mps 584 mmHg 77%
    10:00 -15°C° 0 mm 1 mps 585 mmHg 73%
    11:00 -14°C° 0 mm 1 mps 585 mmHg 72%
    12:00 -15°C° 0 mm 2 mps 586 mmHg 71%
    13:00 -14°C° 0 mm 2 mps 586 mmHg 70%
    14:00 -14°C° 0 mm 2 mps 586 mmHg 72%
    15:00 -13°C° 0 mm 2 mps 586 mmHg 74%
    16:00 -13°C° 0 mm 2 mps 585 mmHg 76%
    17:00 -15°C° 0 mm 2 mps 585 mmHg 80%
    18:00 -16°C° 0 mm 2 mps 585 mmHg 85%
    19:00 -17°C° 0 mm 2 mps 584 mmHg 90%
    20:00 -17°C° 0 mm 2 mps 584 mmHg 90%
    21:00 -17°C° 0 mm 2 mps 585 mmHg 89%
    22:00 -18°C° 0 mm 3 mps 585 mmHg 89%
    23:00 -19°C° 0 mm 3 mps 585 mmHg 89%
    Show more